Location: Bourg-d�Oueil
(42.8588°N, 0.4991°E)
Time: 17:05:51
(UTC+00:00)

BREEZE-M DEB (TANK) - Pass Details

Date: 16 June 2021
Orbit: 318 x 12038 km, 49.6° (Epoch: 03 August)

Event Time Altitude Azimuth Distance (km) Brightness Sun altitude
Rises 21:32:49 0° 237° (WSW) 2,049 5.1 -15.7°
Reaches altitude 10° 21:34:23 10° 235° (SW) 1,247 3.9 -15.9°
Maximum altitude 21:36:41 79° 149° (SSE) 419 1.3 -16.1°
Drops below altitude 10° 21:40:50 10° 62° (ENE) 2,232 5.2 -16.5°
Sets 21:44:41 0° 62° (ENE) 4,101 6.5 -16.9°
